| time (UTC) | temp C | wind direction | speed KPH | gust KPH | rain 1hr cm | rain 24hr cm | rain mn cm | humidity % | barometer mb |
| 20260906104305 | 22 | 124 | 0.0 | 1.6 | 0.00 | 0.00 | 0.00 | 93 | 1014.2 |
| 20260906103805 | 22 | 126 | 0.0 | 1.6 | 0.00 | 0.00 | 0.00 | 93 | 1014.2 |
| 20260906103305 | 22 | 154 | 0.0 | 1.6 | 0.00 | 0.00 | 0.00 | 93 | 1014.1 |
| 20260906102804 | 22 | 216 | 1.6 | 1.6 | 0.00 | 0.00 | 0.00 | 93 | 1014.1 |
| 20260906101804 | 22 | 115 | 1.6 | 1.6 | 0.00 | 0.00 | 0.00 | 93 | 1014.0 |
| 20260906100805 | 22 | 47 | 1.6 | 1.6 | 0.00 | 0.00 | 0.00 | 93 | 1013.9 |
| 20260906100304 | 22 | 81 | 0.0 | 1.6 | 0.00 | 0.00 | 0.00 | 93 | 1013.9 |
| 20260906095805 | 22 | 37 | 0.0 | 1.6 | 0.00 | 0.00 | 0.00 | 93 | 1013.9 |
| 20260906095306 | 22 | 130 | 0.0 | 1.6 | 0.00 | 0.00 | 0.00 | 93 | 1013.9 |
| 20260906094805 | 22 | 145 | 0.0 | 1.6 | 0.00 | 0.00 | 0.00 | 93 | 1013.8 |
| 20260906094305 | 22 | 10 | 0.0 | 1.6 | 0.00 | 0.00 | 0.00 | 93 | 1013.8 |
| 20260906093804 | 22 | 125 | 0.0 | 1.6 | 0.00 | 0.00 | 0.00 | 93 | 1013.7 |
| 20260906093304 | 22 | 149 | 0.0 | 1.6 | 0.00 | 0.00 | 0.00 | 94 | 1013.7 |
| 20260906091804 | 22 | 259 | 0.0 | 1.6 | 0.00 | 0.00 | 0.00 | 93 | 1013.6 |
| 20260906090804 | 22 | 162 | 0.0 | 1.6 | 0.00 | 0.00 | 0.00 | 93 | 1013.6 |
| 20260906090304 | 22 | 234 | 0.0 | 1.6 | 0.00 | 0.00 | 0.00 | 93 | 1013.6 |
| 20260906085805 | 22 | 136 | 0.0 | 1.6 | 0.00 | 0.00 | 0.00 | 93 | 1013.5 |
| 20260906085307 | 22 | 103 | 0.0 | 1.6 | 0.00 | 0.00 | 0.00 | 93 | 1013.5 |
| 20260906084805 | 22 | 163 | 0.0 | 1.6 | 0.00 | 0.00 | 0.00 | 93 | 1013.4 |
| 20260906082804 | 22 | 48 | 0.0 | 1.6 | 0.00 | 0.00 | 0.00 | 93 | 1013.3 |
| 20260906082306 | 22 | 79 | 0.0 | 1.6 | 0.00 | 0.00 | 0.00 | 92 | 1013.3 |
| 20260906081804 | 22 | 150 | 0.0 | 1.6 | 0.00 | 0.00 | 0.00 | 92 | 1013.3 |
| 20260906081304 | 22 | 281 | 0.0 | 0.0 | 0.00 | 0.00 | 0.00 | 92 | 1013.4 |
| 20260906080804 | 22 | 51 | 0.0 | 1.6 | 0.00 | 0.00 | 0.00 | 92 | 1013.3 |
| 20260906080305 | 22 | 158 | 0.0 | 0.0 | 0.00 | 0.00 | 0.00 | 92 | 1013.3 |
| 20260906074304 | 22 | 126 | 0.0 | 1.6 | 0.00 | 0.00 | 0.00 | 92 | 1013.4 |
| 20260906073805 | 22 | 94 | 0.0 | 1.6 | 0.00 | 0.00 | 0.00 | 91 | 1013.5 |
| 20260906073304 | 22 | 126 | 1.6 | 1.6 | 0.00 | 0.00 | 0.00 | 91 | 1013.5 |
| 20260906072306 | 22 | 37 | 0.0 | 0.0 | 0.00 | 0.00 | 0.00 | 91 | 1013.5 |
| 20260906071804 | 22 | 245 | 0.0 | 1.6 | 0.00 | 0.00 | 0.00 | 91 | 1013.5 |
| 20260906071304 | 22 | 63 | 1.6 | 1.6 | 0.00 | 0.00 | 0.00 | 91 | 1013.6 |
| 20260906070304 | 23 | 67 | 0.0 | 1.6 | 0.00 | 0.00 | 0.00 | 91 | 1013.6 |
| 20260906065804 | 23 | 254 | 0.0 | 1.6 | 0.00 | 0.00 | 0.00 | 91 | 1013.7 |
| 20260906065306 | 23 | 170 | 0.0 | 0.0 | 0.00 | 0.00 | 0.00 | 90 | 1013.8 |
| 20260906063804 | 23 | 107 | 0.0 | 1.6 | 0.00 | 0.00 | 0.00 | 90 | 1013.9 |
| 20260906063304 | 23 | 13 | 0.0 | 0.0 | 0.00 | 0.00 | 0.00 | 90 | 1013.8 |
| 20260906062306 | 23 | 188 | 0.0 | 1.6 | 0.00 | 0.00 | 0.00 | 90 | 1013.8 |
| 20260906061304 | 23 | 141 | 0.0 | 1.6 | 0.00 | 0.00 | 0.00 | 89 | 1013.9 |
| 20260906060804 | 23 | 262 | 0.0 | 1.6 | 0.00 | 0.00 | 0.00 | 90 | 1013.9 |
| 20260906060304 | 23 | 279 | 0.0 | 1.6 | 0.00 | 0.00 | 0.00 | 89 | 1013.9 |
| 20260906055804 | 23 | 333 | 1.6 | 1.6 | 0.00 | 0.00 | 0.00 | 89 | 1014.0 |
| 20260906055306 | 23 | 113 | 0.0 | 1.6 | 0.00 | 0.00 | 0.00 | 89 | 1013.9 |
| 20260906054804 | 23 | 168 | 1.6 | 3.2 | 0.00 | 0.00 | 0.00 | 89 | 1014.0 |
| 20260906054306 | 23 | 303 | 1.6 | 3.2 | 0.00 | 0.00 | 0.00 | 89 | 1013.9 |
| 20260906053805 | 23 | 151 | 1.6 | 3.2 | 0.00 | 0.00 | 0.00 | 88 | 1014.0 |
| 20260906053304 | 23 | 237 | 1.6 | 3.2 | 0.00 | 0.00 | 0.00 | 88 | 1013.7 |
| 20260906052804 | 24 | 285 | 1.6 | 1.6 | 0.00 | 0.00 | 0.00 | 87 | 1014.0 |
| 20260906052305 | 24 | 37 | 1.6 | 3.2 | 0.00 | 0.00 | 0.00 | 87 | 1013.9 |
| 20260906051806 | 24 | 212 | 1.6 | 3.2 | 0.00 | 0.00 | 0.00 | 86 | 1013.9 |
| 20260906051307 | 24 | 151 | 0.0 | 1.6 | 0.00 | 0.00 | 0.00 | 86 | 1013.9 |
| 20260906050306 | 24 | 120 | 1.6 | 1.6 | 0.00 | 0.00 | 0.00 | 85 | 1013.9 |
| 20260906045806 | 25 | 125 | 1.6 | 1.6 | 0.00 | 0.00 | 0.00 | 85 | 1013.8 |
| 20260906045306 | 25 | 181 | 0.0 | 1.6 | 0.00 | 0.00 | 0.00 | 85 | 1013.7 |
| 20260906044806 | 25 | 192 | 1.6 | 1.6 | 0.00 | 0.00 | 0.00 | 84 | 1013.7 |
| 20260906043805 | 25 | 300 | 1.6 | 3.2 | 0.00 | 0.00 | 0.00 | 84 | 1013.5 |
| 20260906043305 | 25 | 271 | 1.6 | 3.2 | 0.00 | 0.00 | 0.00 | 84 | 1013.5 |
| 20260906042806 | 25 | 269 | 1.6 | 1.6 | 0.00 | 0.00 | 0.00 | 84 | 1013.4 |
| 20260906042307 | 25 | 263 | 1.6 | 3.2 | 0.00 | 0.00 | 0.00 | 84 | 1013.4 |
| 20260906041806 | 25 | 3 | 1.6 | 3.2 | 0.00 | 0.00 | 0.00 | 84 | 1013.5 |
| 20260906041305 | 25 | 306 | 1.6 | 3.2 | 0.00 | 0.00 | 0.00 | 83 | 1013.5 |
| 20260906040831 | 25 | 288 | 0.0 | 1.6 | 0.00 | 0.00 | 0.00 | 84 | 1013.5 |
| 20260906035805 | 25 | 285 | 1.6 | 1.6 | 0.00 | 0.00 | 0.00 | 82 | 1013.5 |
| 20260906035306 | 25 | 241 | 1.6 | 1.6 | 0.00 | 0.00 | 0.00 | 82 | 1013.6 |
| 20260906034806 | 25 | 335 | 0.0 | 3.2 | 0.00 | 0.00 | 0.00 | 82 | 1013.5 |
| 20260906034306 | 25 | 252 | 1.6 | 3.2 | 0.00 | 0.00 | 0.00 | 81 | 1013.4 |
| 20260906033806 | 25 | 228 | 1.6 | 1.6 | 0.00 | 0.00 | 0.00 | 81 | 1013.3 |
| 20260906033307 | 25 | 281 | 1.6 | 3.2 | 0.00 | 0.00 | 0.00 | 81 | 1013.2 |
| 20260906032805 | 25 | 256 | 1.6 | 1.6 | 0.00 | 0.00 | 0.00 | 80 | 1013.1 |
| 20260906032306 | 25 | 274 | 1.6 | 3.2 | 0.00 | 0.00 | 0.00 | 81 | 1013.2 |
| 20260906031805 | 25 | 229 | 1.6 | 3.2 | 0.00 | 0.00 | 0.00 | 80 | 1013.3 |
| 20260906031306 | 25 | 246 | 0.0 | 3.2 | 0.00 | 0.00 | 0.00 | 80 | 1013.4 |
| 20260906030806 | 25 | 149 | 0.0 | 3.2 | 0.00 | 0.00 | 0.00 | 80 | 1013.5 |
| 20260906030306 | 25 | 226 | 1.6 | 3.2 | 0.00 | 0.00 | 0.00 | 81 | 1013.4 |
| 20260906025306 | 25 | 249 | 1.6 | 3.2 | 0.00 | 0.00 | 0.00 | 82 | 1013.5 |
| 20260906024806 | 25 | 232 | 1.6 | 3.2 | 0.00 | 0.00 | 0.00 | 82 | 1013.5 |
| 20260906024306 | 25 | 234 | 1.6 | 3.2 | 0.00 | 0.00 | 0.00 | 83 | 1013.6 |
| 20260906023805 | 25 | 355 | 0.0 | 1.6 | 0.00 | 0.00 | 0.00 | 84 | 1013.6 |
| 20260906023307 | 25 | 187 | 1.6 | 3.2 | 0.00 | 0.00 | 0.00 | 84 | 1013.6 |
| 20260906022806 | 25 | 92 | 1.6 | 1.6 | 0.00 | 0.00 | 0.00 | 83 | 1013.5 |
| 20260906022307 | 25 | 52 | 1.6 | 1.6 | 0.00 | 0.00 | 0.00 | 83 | 1013.5 |
| 20260906021806 | 25 | 278 | 0.0 | 1.6 | 0.00 | 0.00 | 0.00 | 84 | 1013.4 |
| 20260906021305 | 25 | 134 | 0.0 | 1.6 | 0.00 | 0.00 | 0.00 | 83 | 1013.4 |
| 20260906020805 | 25 | 279 | 0.0 | 1.6 | 0.00 | 0.00 | 0.00 | 82 | 1013.2 |
| 20260906015806 | 25 | 253 | 0.0 | 3.2 | 0.00 | 0.00 | 0.00 | 83 | 1013.2 |
| 20260906015306 | 25 | 215 | 1.6 | 3.2 | 0.00 | 0.00 | 0.00 | 83 | 1013.1 |
| 20260906014806 | 25 | 141 | 1.6 | 1.6 | 0.00 | 0.00 | 0.00 | 82 | 1013.0 |
| 20260906014305 | 25 | 118 | 1.6 | 1.6 | 0.00 | 0.00 | 0.00 | 80 | 1012.8 |
| 20260906013805 | 25 | 46 | 1.6 | 1.6 | 0.00 | 0.00 | 0.00 | 80 | 1012.6 |
| 20260906013306 | 25 | 114 | 1.6 | 1.6 | 0.00 | 0.00 | 0.00 | 79 | 1012.5 |
| 20260906012806 | 25 | 125 | 0.0 | 0.0 | 0.00 | 0.00 | 0.00 | 79 | 1012.3 |
| 20260906012306 | 25 | 92 | 0.0 | 0.0 | 0.00 | 0.00 | 0.00 | 80 | 1012.4 |
| 20260906011806 | 25 | 90 | 0.0 | 1.6 | 0.00 | 0.00 | 0.00 | 80 | 1012.5 |
| 20260906011305 | 25 | 158 | 0.0 | 1.6 | 0.00 | 0.00 | 0.00 | 79 | 1012.5 |
| 20260906010806 | 25 | 296 | 0.0 | 1.6 | 0.00 | 0.00 | 0.00 | 80 | 1012.5 |
| 20260906010306 | 25 | 135 | 0.0 | 1.6 | 0.00 | 0.00 | 0.00 | 78 | 1012.4 |
| 20260906005306 | 26 | 227 | 0.0 | 1.6 | 0.00 | 0.00 | 0.00 | 77 | 1012.4 |
| 20260906004306 | 26 | 190 | 1.6 | 3.2 | 0.00 | 0.00 | 0.00 | 77 | 1012.3 |
| 20260906003305 | 26 | 34 | 1.6 | 3.2 | 0.00 | 0.00 | 0.00 | 75 | 1012.3 |
| 20260906002806 | 27 | 298 | 3.2 | 3.2 | 0.00 | 0.00 | 0.00 | 73 | 1012.5 |
| 20260906002306 | 27 | 129 | 1.6 | 1.6 | 0.00 | 0.00 | 0.00 | 74 | 1012.4 |
| 20260906001805 | 27 | 186 | 1.6 | 1.6 | 0.00 | 0.00 | 0.00 | 75 | 1012.5 |
| 20260906001306 | 27 | 310 | 0.0 | 1.6 | 0.00 | 0.00 | 0.00 | 76 | 1012.5 |
| 20260906000806 | 27 | 307 | 1.6 | 3.2 | 0.00 | 0.00 | 0.00 | 74 | 1012.6 |
| 20260906000306 | 27 | 300 | 1.6 | 3.2 | 0.00 | 0.00 | 0.00 | 74 | 1013.0 |
| 20260905235306 | 27 | 325 | 3.2 | 3.2 | 0.00 | 0.00 | 0.00 | 73 | 1013.3 |
| 20260905234805 | 27 | 125 | 1.6 | 3.2 | 0.00 | 0.00 | 0.00 | 73 | 1013.4 |
| 20260905233806 | 28 | 299 | 3.2 | 9.7 | 0.00 | 0.00 | 0.00 | 69 | 1013.4 |
| 20260905233306 | 28 | 115 | 1.6 | 3.2 | 0.00 | 0.00 | 0.00 | 70 | 1013.4 |
| 20260905232805 | 29 | 26 | 1.6 | 3.2 | 0.00 | 0.00 | 0.00 | 69 | 1013.3 |
| 20260905231805 | 29 | 102 | 1.6 | 3.2 | 0.00 | 0.00 | 0.00 | 66 | 1013.1 |
| 20260905231313 | 30 | 270 | 1.6 | 3.2 | 0.00 | 0.00 | 0.08 | 65 | 1013.1 |